Location: Baix
(44.7118°N, 4.7648°E)
Time: 12:03:22
(UTC+00:00)

Vanguard 2 Rocket - Pass Details

Date: 30 November 2020
Orbit: 554 x 3325 km, 32.9° (Epoch: 23 January)

Event Time Altitude Azimuth Distance (km) Brightness Sun altitude
Rises 07:28:36 0° 237° (WSW) 7,011 11.2 3.8°
Reaches altitude 10° 07:33:18 10° 233° (SW) 6,158 11.0 4.5°
Maximum altitude 07:52:15 51° 165° (SSE) 3,741 10.7 7.1°
Drops below altitude 10° 08:07:52 10° 97° (E) 5,182 11.8 9.2°
Sets 08:11:24 0° 92° (E) 5,880 11.9 9.6°
